Wind_Speed
13 13 13 13 13 13 13 13 13 13 13 13 13 13 13 13 13 13 13 13 14 14 14 15 16 17 18 19 20 21 21 22 22 23 24 24 25 25
16 16 16 16 17 17 17 17 17 16 16 16 16 16 16 16 16 16 16 17 17 17 17 17 18 18 19 20 21 22 23 24 24 25 26 27 27 27
20 20 20 20 20 20 20 20 20 19 19 19 19 18 18 19 19 20 20 20 19 19 19 20 20 20 21 21 22 23 24 25 26 27 27 28 28 29
23 24 24 24 24 24 24 23 23 22 22 22 22 22 22 22 22 22 23 23 23 23 23 23 23 23 24 24 24 25 25 26 27 27 28 29 30 30
27 28 28 28 28 27 27 27 27 26 26 26 26 26 26 26 26 25 26 26 26 26 26 26 26 26 26 26 27 27 27 28 28 28 29 30 31 31
31 31 31 31 31 31 31 30 30 29 29 29 29 29 29 29 29 29 29 29 29 29 29 29 29 29 29 29 30 30 30 30 31 31 31 31 31 32
33 34 34 34 34 34 33 33 32 32 32 32 32 31 31 32 32 32 32 32 32 32 33 33 33 33 33 33 33 33 33 33 33 33 34 34 34 34
36 36 36 36 36 36 36 36 36 35 35 35 35 35 35 35 35 35 35 35 35 36 36 36 36 36 36 36 36 36 36 36 36 36 36 36 37 37
38 38 38 39 39 39 39 38 38 38 38 39 38 38 38 38 38 38 38 39 38 39 39 39 39 39 39 39 39 39 39 39 39 39 39 39 39 39
40 40 40 40 41 41 41 41 41 42 42 42 42 42 42 42 42 42 42 42 42 42 43 42 42 42 42 43 43 43 43 43 43 43 42 42 42 42
40 40 41 41 41 42 42 43 43 44 45 45 44 44 44 45 45 45 45 45 45 45 46 46 45 46 46 46 47 47 47 47 47 47 46 46 45 45
40 40 41 42 42 43 43 44 45 46 47 46 46 47 47 47 48 48 49 49 49 48 49 51 51 52 50 49 50 51 52 51 51 50 50 50 49 49
42 42 42 43 44 45 46 45 46 47 49 49 49 49 50 51 52 52 53 53 53 53 53 54 54 55 56 54 53 54 54 54 54 53 53 53 53 52
44 45 45 45 46 47 47 47 49 50 51 51 50 51 52 54 55 56 57 57 57 56 56 57 57 57 58 58 56 55 56 56 56 56 56 56 56 56
44 45 46 46 47 48 48 49 50 51 51 51 52 53 54 56 57 58 59 59 58 58 58 59 60 61 61 61 60 59 58 57 58 59 60 59 59 58
45 46 47 48 49 49 50 51 52 52 53 54 54 55 56 57 57 58 59 59 59 59 60 62 62 63 63 63 63 61 61 60 60 61 62 63 63 62
47 48 49 49 49 51 52 52 53 55 56 56 57 57 58 58 58 58 59 60 61 61 61 61 61 62 62 63 62 62 62 62 62 62 63 63 63 63
48 48 49 50 51 53 54 54 55 56 56 57 57 57 57 57 57 58 59 59 59 59 59 59 60 60 61 60 60 61 61 61 61 62 63 63 62 62
48 49 50 50 51 52 53 53 54 54 55 55 56 55 55 56 56 56 57 57 57 57 57 57 58 58 59 58 56 58 59 59 60 60 60 60 59 58
50 50 50 51 51 51 51 51 52 53 54 54 54 54 54 54 54 54 54 54 54 53 53 53 54 55 55 54 53 52 54 55 56 55 55 55 54 54
50 50 50 51 50 50 49 50 50 51 52 52 52 52 51 51 51 51 50 50 50 50 50 50 50 51 51 51 50 48 47 48 49 48 48 48 48 47
49 49 49 48 48 48 48 48 49 48 48 47 47 47 47 47 47 47 46 46 46 46 45 44 44 45 44 44 43 42 41 41 42 42 42 42 42 41
49 49 48 48 47 47 46 46 45 45 44 44 43 43 43 43 43 43 44 44 43 42 41 40 39 39 39 39 39 38 36 36 36 36 37 38 38 37
Wind_Direction
270 275 279 282 284 286 287 287 288 287 287 287 288 288 287 286 286 286 286 285 283 282 281 279 276 274 273 271 269 267 266 266 265 264 263 263 263 262
269 272 275 278 280 282 283 282 282 282 282 283 284 285 284 284 283 282 282 282 281 280 280 280 280 278 276 273 271 270 268 267 266 265 264 263 263 263
269 271 273 276 277 278 280 281 280 279 280 282 282 282 282 281 280 280 280 280 280 279 279 279 280 280 278 277 275 273 272 270 269 267 266 265 264 263
269 271 273 274 276 278 278 278 278 277 278 280 281 281 281 281 280 279 278 278 278 279 279 279 279 279 279 278 277 275 274 273 271 270 268 267 266 265
270 272 273 274 275 276 277 276 276 275 276 277 278 279 279 279 279 278 277 276 277 277 277 278 279 279 278 278 277 276 275 274 273 272 270 269 268 267
272 273 273 274 274 275 275 274 274 274 275 275 276 277 278 278 277 277 277 276 276 276 275 276 276 277 277 277 276 276 275 274 274 273 271 270 269 268
273 274 274 273 273 273 273 273 274 273 273 274 275 275 276 276 276 276 276 275 275 275 275 275 276 276 276 276 276 276 275 274 273 273 272 271 270 269
272 272 273 273 273 273 273 273 273 273 273 274 274 275 275 275 275 276 276 276 275 275 275 275 276 276 276 276 276 277 276 275 274 272 271 271 270 269
273 273 273 273 273 272 273 273 273 273 274 274 275 275 275 275 275 275 275 276 276 276 275 276 276 276 276 276 277 277 276 275 274 273 272 271 269 269
273 272 273 274 274 274 273 272 273 273 275 275 274 274 275 276 276 276 276 276 276 276 276 275 275 275 275 276 277 276 276 275 274 274 272 271 270 268
274 273 272 273 274 274 274 274 273 273 275 276 275 275 276 276 275 275 275 276 276 276 276 275 274 273 273 275 275 276 275 275 274 273 272 271 270 268
274 273 273 274 274 274 274 274 274 274 275 275 275 275 276 276 276 275 275 276 276 275 275 275 275 274 273 273 275 275 275 275 274 273 272 271 270 269
273 273 274 274 275 274 274 274 274 275 275 275 275 275 276 276 276 276 276 276 276 276 276 275 275 275 274 273 273 274 275 274 274 273 271 270 269 268
273 274 274 274 275 275 276 276 275 275 276 276 276 276 277 277 277 278 278 277 277 277 276 276 275 275 275 275 275 274 273 272 272 272 271 270 268 267
274 274 275 275 276 276 277 278 277 277 277 277 278 278 278 278 278 278 278 278 278 277 277 277 277 276 276 276 275 274 273 273 273 271 270 268 267 267
276 276 277 277 277 277 277 278 278 278 278 278 278 279 279 279 279 278 278 278 278 278 278 278 278 278 277 276 275 275 274 273 272 271 270 268 267 265
278 278 278 277 277 277 277 277 278 279 279 279 279 280 280 280 280 280 279 279 279 278 278 278 279 279 279 278 277 277 276 274 273 271 270 269 267 266
279 279 280 280 279 279 280 280 280 280 280 280 280 279 280 280 280 280 280 280 280 280 279 279 279 279 279 278 278 278 276 275 274 273 271 269 268 266
282 282 282 282 282 282 282 281 281 281 281 281 280 280 280 281 281 281 281 281 281 281 281 281 281 280 280 279 278 278 277 275 274 273 271 269 268 265
283 283 282 282 282 282 282 282 282 282 281 281 280 281 281 281 281 281 281 282 282 283 283 283 282 282 282 281 280 279 279 278 276 274 271 270 268 265
284 284 284 284 284 283 283 284 284 283 283 282 282 282 281 281 282 282 282 283 284 284 284 284 283 284 284 284 283 282 280 278 277 274 271 269 268 264
284 284 285 285 285 285 285 285 285 285 285 284 284 284 283 283 284 284 285 285 286 286 285 286 285 286 286 285 284 284 282 279 277 274 272 270 267 264
286 286 286 286 286 286 287 287 287 286 286 285 285 285 286 285 286 286 286 286 287 287 287 287 286 286 286 287 287 286 284 281 277 275 272 268 266 263
Height
5870 5870 5869 5869 5869 5869 5868 5868 5868 5867 5866 5865 5864 5863 5862 5862 5861 5860 5859 5859 5858 5857 5857 5856 5856 5856 5856 5855 5856 5856 5856 5856 5856 5856 5857 5857 5858 5859
5866 5866 5866 5866 5865 5865 5865 5864 5864 5863 5862 5861 5860 5860 5859 5858 5857 5856 5856 5855 5854 5853 5853 5852 5851 5851 5851 5850 5850 5850 5850 5850 5850 5850 5851 5851 5852 5852
5862 5862 5862 5861 5861 5861 5860 5860 5859 5858 5858 5857 5856 5855 5854 5853 5853 5852 5851 5850 5850 5849 5848 5847 5847 5846 5845 5845 5844 5844 5844 5844 5844 5844 5844 5844 5845 5845
5857 5857 5856 5856 5856 5855 5855 5854 5854 5853 5853 5852 5851 5850 5849 5848 5847 5847 5846 5845 5844 5844 5843 5842 5841 5841 5840 5839 5838 5838 5837 5837 5837 5837 5837 5837 5837 5837
5851 5851 5850 5850 5849 5849 5848 5848 5847 5847 5846 5845 5844 5844 5843 5842 5841 5840 5840 5839 5838 5837 5836 5836 5835 5834 5833 5832 5832 5831 5831 5830 5830 5829 5829 5829 5829 5829
5844 5843 5843 5843 5842 5842 5841 5840 5840 5840 5839 5838 5837 5836 5835 5834 5833 5833 5832 5831 5831 5830 5829 5828 5827 5826 5825 5825 5824 5823 5823 5822 5822 5821 5821 5821 5821 5821
5836 5835 5835 5834 5833 5833 5833 5832 5832 5831 5831 5830 5829 5828 5827 5826 5825 5824 5824 5823 5822 5821 5820 5819 5818 5817 5817 5816 5815 5814 5814 5813 5813 5813 5812 5812 5812 5812
5826 5826 5825 5825 5824 5824 5823 5823 5822 5822 5821 5820 5820 5819 5818 5817 5816 5815 5814 5813 5813 5812 5811 5810 5809 5808 5807 5806 5805 5804 5804 5803 5803 5803 5802 5802 5802 5802
5817 5816 5815 5815 5814 5814 5813 5813 5812 5811 5811 5810 5810 5809 5808 5807 5806 5805 5803 5803 5802 5801 5800 5800 5798 5797 5796 5795 5794 5793 5792 5792 5792 5791 5791 5791 5791 5791
5807 5806 5805 5804 5803 5803 5802 5802 5801 5800 5799 5798 5798 5797 5796 5795 5794 5793 5792 5791 5791 5789 5787 5788 5787 5786 5785 5783 5782 5781 5780 5779 5779 5779 5779 5779 5779 5779
5796 5795 5794 5794 5792 5791 5791 5790 5789 5788 5787 5786 5786 5784 5783 5782 5781 5780 5779 5778 5778 5778 5775 5774 5774 5772 5772 5771 5769 5767 5766 5766 5765 5765 5765 5765 5765 5765
5785 5784 5783 5782 5781 5779 5778 5778 5777 5776 5774 5773 5772 5771 5770 5768 5767 5766 5765 5764 5763 5763 5762 5759 5758 5756 5757 5758 5755 5753 5751 5750 5750 5750 5750 5750 5750 5750
5774 5773 5771 5770 5768 5767 5766 5765 5764 5762 5761 5760 5759 5757 5756 5754 5752 5750 5749 5748 5747 5747 5746 5743 5742 5740 5739 5740 5740 5737 5735 5733 5733 5733 5733 5733 5733 5734
5762 5760 5759 5757 5755 5754 5752 5751 5750 5749 5747 5746 5744 5743 5741 5739 5737 5734 5732 5731 5729 5729 5727 5725 5723 5722 5721 5720 5721 5721 5718 5716 5715 5715 5715 5715 5716 5716
5749 5748 5746 5744 5742 5740 5739 5737 5735 5733 5732 5731 5729 5727 5725 5723 5721 5718 5716 5713 5712 5710 5708 5705 5704 5702 5701 5701 5701 5701 5700 5699 5697 5696 5696 5696 5697 5698
5736 5734 5732 5730 5728 5726 5724 5722 5720 5718 5716 5715 5713 5711 5708 5706 5703 5700 5698 5696 5694 5693 5689 5686 5683 5682 5680 5680 5679 5680 5679 5678 5678 5676 5675 5676 5677 5678
5721 5719 5717 5715 5713 5711 5708 5706 5704 5702 5700 5698 5695 5693 5691 5688 5685 5682 5680 5677 5676 5674 5672 5668 5663 5661 5660 5659 5659 5658 5657 5656 5655 5654 5653 5654 5656 5658
5707 5705 5702 5700 5698 5695 5692 5690 5688 5685 5683 5680 5678 5676 5673 5670 5668 5665 5661 5658 5656 5654 5652 5649 5645 5642 5641 5641 5639 5637 5636 5634 5633 5632 5631 5633 5636 5637
5693 5690 5688 5685 5683 5680 5677 5674 5671 5668 5666 5663 5661 5658 5655 5653 5650 5647 5643 5640 5637 5635 5632 5629 5626 5623 5622 5623 5622 5617 5615 5614 5612 5611 5611 5611 5614 5617
5678 5675 5672 5670 5667 5664 5661 5658 5655 5652 5649 5646 5643 5641 5638 5635 5633 5630 5626 5623 5620 5618 5615 5612 5609 5605 5603 5603 5603 5603 5597 5593 5592 5591 5592 5592 5594 5596
5662 5659 5656 5654 5651 5648 5645 5642 5639 5635 5632 5629 5626 5624 5621 5619 5616 5614 5611 5608 5605 5602 5600 5597 5593 5589 5586 5585 5585 5585 5582 5577 5574 5573 5574 5574 5576 5578
5646 5644 5641 5638 5635 5632 5629 5626 5623 5619 5616 5613 5610 5608 5606 5603 5601 5599 5596 5593 5590 5588 5585 5583 5579 5576 5572 5570 5568 5568 5566 5563 5560 5558 5558 5559 5559 5563
5631 5628 5625 5622 5619 5616 5613 5610 5607 5604 5602 5599 5596 5594 5591 5589 5587 5584 5582 5579 5577 5574 5572 5569 5567 5563 5560 5557 5555 5554 5552 5550 5547 5546 5546 5546 5546 5549